{"data":{"norad_id":62804,"epoch":"2026-05-25T03:49:54.255072Z","epoch_age_seconds":68085,"freshness":"FRESH","line1":"1 62804U 25017A   26145.15965573  .00000113  00000+0  00000+0 0  9997","line2":"2 62804   0.8336 294.1638 0000023 159.7333 224.7225  1.00274873  5046","mean_motion":1.00274873,"eccentricity":2.3e-6,"inclination_deg":0.8336,"raan_deg":294.1638,"arg_perigee_deg":159.7333,"mean_anomaly_deg":224.7225,"bstar":0,"rev_number":504,"period_min":1436.0526789199,"perigee_km":35785.632328016,"apogee_km":35785.826281801,"semimajor_km":42163.866304909,"source":"CELESTRAK","updated_at":"2026-05-25T13:38:14.150769Z"}}